Tiempo cada hora Abaran

Hoy, 20 Octubre, Martes

Tiempo Temperatura Precipitaciones Viento Presión Humedad
00:00 +12°C° 0 mm 0 mps 729 mmHg 88%
01:00 +12°C° 0 mm 0 mps 728 mmHg 87%
02:00 +12°C° 0 mm 0 mps 728 mmHg 87%
03:00 +11°C° 0 mm 0 mps 728 mmHg 86%
04:00 +12°C° 0 mm 0 mps 728 mmHg 81%
05:00 +13°C° 0 mm 0 mps 727 mmHg 76%
06:00 +14°C° 0 mm 1 mps 727 mmHg 72%
07:00 +16°C° 0 mm 1 mps 728 mmHg 65%
08:00 +18°C° 0 mm 1 mps 728 mmHg 59%
09:00 +19°C° 0 mm 2 mps 728 mmHg 52%
10:00 +21°C° 0 mm 3 mps 728 mmHg 50%
11:00 +22°C° 0 mm 4 mps 727 mmHg 48%
12:00 +23°C° 0 mm 5 mps 727 mmHg 46%
13:00 +25°C° 0 mm 5 mps 727 mmHg 47%
14:00 +25°C° 0 mm 5 mps 726 mmHg 49%
15:00 +25°C° 0 mm 5 mps 726 mmHg 50%
16:00 +22°C° 0 mm 5 mps 725 mmHg 58%
17:00 +21°C° 0 mm 4 mps 724 mmHg 65%
18:00 +19°C° 0 mm 3 mps 724 mmHg 72%
19:00 +18°C° 0 mm 3 mps 724 mmHg 72%
20:00 +18°C° 0 mm 2 mps 724 mmHg 72%
21:00 +17°C° 0 mm 2 mps 724 mmHg 71%
22:00 +17°C° 0 mm 2 mps 724 mmHg 72%
23:00 +16°C° 0 mm 1 mps 724 mmHg 74%

Mañana, 21 Octubre, Miércoles

Tiempo Temperatura Precipitaciones Viento Presión Humedad
00:00 +16°C° 0 mm 1 mps 723 mmHg 75%
01:00 +16°C° 0 mm 1 mps 723 mmHg 73%
02:00 +16°C° 0 mm 1 mps 723 mmHg 71%
03:00 +16°C° 0 mm 1 mps 723 mmHg 70%
04:00 +16°C° 0 mm 1 mps 723 mmHg 68%
05:00 +18°C° 0 mm 1 mps 724 mmHg 66%
06:00 +18°C° 0 mm 1 mps 724 mmHg 64%
07:00 +20°C° 0 mm 1 mps 725 mmHg 59%
08:00 +21°C° 0 mm 1 mps 725 mmHg 53%
09:00 +23°C° 0 mm 2 mps 726 mmHg 47%
10:00 +24°C° 0 mm 3 mps 726 mmHg 45%
11:00 +26°C° 0 mm 4 mps 726 mmHg 43%
12:00 +27°C° 0 mm 6 mps 726 mmHg 40%
13:00 +27°C° 0 mm 6 mps 726 mmHg 39%
14:00 +27°C° 0 mm 6 mps 726 mmHg 37%
15:00 +27°C° 0 mm 6 mps 726 mmHg 36%
16:00 +26°C° 0 mm 5 mps 726 mmHg 42%
17:00 +23°C° 0 mm 4 mps 726 mmHg 47%
18:00 +21°C° 0 mm 3 mps 726 mmHg 53%
19:00 +20°C° 0 mm 2 mps 726 mmHg 56%
20:00 +20°C° 0 mm 2 mps 726 mmHg 59%
21:00 +19°C° 0 mm 2 mps 726 mmHg 62%
22:00 +19°C° 0 mm 1 mps 726 mmHg 65%
23:00 +19°C° 0 mm 1 mps 726 mmHg 67%

Pasado mañana, 22 Octubre, Jueves

Tiempo Temperatura Precipitaciones Viento Presión Humedad
00:00 +18°C° 0 mm 1 mps 726 mmHg 69%
01:00 +18°C° 0 mm 1 mps 726 mmHg 68%
02:00 +18°C° 0 mm 1 mps 725 mmHg 67%
03:00 +18°C° 0 mm 1 mps 725 mmHg 66%
04:00 +17°C° 0 mm 2 mps 725 mmHg 66%
05:00 +17°C° 0 mm 2 mps 726 mmHg 67%
06:00 +18°C° 0 mm 2 mps 726 mmHg 67%
07:00 +18°C° 0 mm 2 mps 726 mmHg 64%
08:00 +20°C° 0 mm 1 mps 727 mmHg 62%
09:00 +21°C° 0 mm 1 mps 727 mmHg 59%
10:00 +21°C° 0 mm 2 mps 727 mmHg 56%
11:00 +21°C° 0 mm 2 mps 727 mmHg 54%
12:00 +23°C° 0 mm 2 mps 727 mmHg 51%
13:00 +22°C° 0 mm 3 mps 727 mmHg 51%
14:00 +22°C° 0 mm 4 mps 727 mmHg 51%
15:00 +23°C° 0 mm 4 mps 727 mmHg 50%
16:00 +22°C° 0 mm 4 mps 727 mmHg 54%
17:00 +21°C° 0 mm 3 mps 727 mmHg 57%
18:00 +20°C° 0 mm 3 mps 727 mmHg 61%
19:00 +19°C° 0.1 mm 2 mps 727 mmHg 64%
20:00 +20°C° 0.1 mm 1 mps 728 mmHg 67%
21:00 +19°C° 0.1 mm 1 mps 728 mmHg 70%
22:00 +19°C° 0.3 mm 1 mps 728 mmHg 72%
23:00 +19°C° 0.3 mm 1 mps 728 mmHg 74%

23 Octubre, Viernes

Tiempo Temperatura Precipitaciones Viento Presión Humedad
00:00 +19°C° 0.3 mm 1 mps 729 mmHg 76%
01:00 +18°C° 0.2 mm 1 mps 729 mmHg 75%
02:00 +17°C° 0.2 mm 2 mps 729 mmHg 75%
03:00 +16°C° 0.2 mm 2 mps 729 mmHg 74%
04:00 +16°C° 0 mm 2 mps 729 mmHg 73%
05:00 +14°C° 0 mm 3 mps 729 mmHg 72%
06:00 +14°C° 0 mm 3 mps 730 mmHg 71%
07:00 +15°C° 0 mm 4 mps 730 mmHg 64%
08:00 +16°C° 0 mm 5 mps 731 mmHg 57%
09:00 +17°C° 0 mm 6 mps 732 mmHg 50%
10:00 +19°C° 0 mm 6 mps 732 mmHg 45%
11:00 +20°C° 0 mm 6 mps 732 mmHg 40%
12:00 +21°C° 0 mm 6 mps 732 mmHg 35%
13:00 +22°C° 0 mm 6 mps 732 mmHg 34%
14:00 +22°C° 0 mm 6 mps 732 mmHg 33%
15:00 +22°C° 0 mm 7 mps 732 mmHg 32%
16:00 +21°C° 0 mm 6 mps 732 mmHg 38%
17:00 +19°C° 0 mm 5 mps 732 mmHg 43%
18:00 +17°C° 0 mm 5 mps 733 mmHg 48%
19:00 +16°C° 0 mm 5 mps 733 mmHg 51%
20:00 +15°C° 0 mm 5 mps 733 mmHg 54%
21:00 +15°C° 0 mm 5 mps 734 mmHg 57%
22:00 +14°C° 0 mm 4 mps 734 mmHg 59%
23:00 +14°C° 0 mm 4 mps 734 mmHg 61%

24 Octubre, Sábado

Tiempo Temperatura Precipitaciones Viento Presión Humedad
00:00 +13°C° 0 mm 3 mps 734 mmHg 62%
01:00 +13°C° 0 mm 3 mps 734 mmHg 64%
02:00 +12°C° 0 mm 3 mps 734 mmHg 66%
03:00 +12°C° 0 mm 3 mps 733 mmHg 68%
04:00 +12°C° 0 mm 3 mps 734 mmHg 71%
05:00 +12°C° 0 mm 2 mps 734 mmHg 74%
06:00 +12°C° 0 mm 2 mps 734 mmHg 77%
07:00 +13°C° 0 mm 2 mps 734 mmHg 70%
08:00 +15°C° 0 mm 2 mps 734 mmHg 62%
09:00 +16°C° 0 mm 2 mps 735 mmHg 55%
10:00 +18°C° 0 mm 2 mps 734 mmHg 49%
11:00 +20°C° 0 mm 1 mps 734 mmHg 42%
12:00 +21°C° 0 mm 1 mps 734 mmHg 36%
13:00 +22°C° 0 mm 1 mps 734 mmHg 34%
14:00 +21°C° 0 mm 2 mps 733 mmHg 32%
15:00 +23°C° 0 mm 2 mps 733 mmHg 29%
16:00 +20°C° 0 mm 2 mps 732 mmHg 36%
17:00 +19°C° 0 mm 1 mps 732 mmHg 44%
18:00 +18°C° 0 mm 1 mps 732 mmHg 51%
19:00 +16°C° 0 mm 1 mps 732 mmHg 56%
20:00 +15°C° 0 mm 1 mps 732 mmHg 62%
21:00 +15°C° 0 mm 1 mps 732 mmHg 67%
22:00 +14°C° 0 mm 1 mps 731 mmHg 69%
23:00 +13°C° 0 mm 0 mps 731 mmHg 71%

25 Octubre, Domingo

Tiempo Temperatura Precipitaciones Viento Presión Humedad
00:00 +12°C° 0 mm 0 mps 731 mmHg 74%
01:00 +12°C° 0 mm 0 mps 730 mmHg 74%
02:00 +12°C° 0 mm 0 mps 730 mmHg 75%
03:00 +11°C° 0 mm 0 mps 729 mmHg 76%
04:00 +11°C° 0 mm 0 mps 729 mmHg 76%
05:00 +11°C° 0 mm 0 mps 729 mmHg 75%
06:00 +10°C° 0 mm 0 mps 729 mmHg 75%
07:00 +13°C° 0 mm 0 mps 729 mmHg 64%
08:00 +16°C° 0 mm 1 mps 730 mmHg 52%
09:00 +20°C° 0 mm 1 mps 730 mmHg 41%
10:00 +21°C° 0 mm 1 mps 730 mmHg 36%
11:00 +22°C° 0 mm 1 mps 730 mmHg 32%
12:00 +24°C° 0 mm 1 mps 729 mmHg 27%
13:00 +24°C° 0 mm 1 mps 729 mmHg 26%
14:00 +25°C° 0 mm 1 mps 729 mmHg 24%
15:00 +25°C° 0 mm 2 mps 728 mmHg 23%
16:00 +23°C° 0 mm 2 mps 728 mmHg 30%
17:00 +21°C° 0 mm 1 mps 728 mmHg 37%
18:00 +19°C° 0 mm 1 mps 727 mmHg 44%
19:00 +17°C° 0 mm 2 mps 728 mmHg 43%
20:00 +17°C° 0 mm 2 mps 728 mmHg 43%
21:00 +16°C° 0 mm 3 mps 728 mmHg 43%
22:00 +16°C° 0 mm 3 mps 728 mmHg 44%
23:00 +16°C° 0 mm 3 mps 728 mmHg 45%
Mostrar más

Necesitamos Su Consentimiento

Meteoprog y nuestros Proveedores de Servicios pueden almacenar y acceder a sus datos personales como cookies, identificadores de dispositivo u otras tecnologías similares de su dispositivo y procesar dichos datos para personalizar contenido y anuncios, además de ofrecer funciones de redes sociales y analizar el tráfico.

  • Almacenar y/o acceder a información en su dispositivo

    Se puede almacenar o acceder a cookies, identificadores de dispositivo u otra información de su dispositivo para los fines anteriormente indicados.

  • Anuncios y contenido personalizados, medición de anuncios y contenido, percepciones del público, y desarrollo de productos

    Los anuncios y el contenido pueden personalizarse en base a su perfil. Se pueden añadir más datos para personalizar mejor los anuncios y contenidos. Se puede medir el rendimiento de los anuncios y contenidos. Se puede obtener la percepción sobre el público que ha visto los anuncios y contenidos. Dichos datos pueden usarse para desarrollar o mejorar la experiencia del usuario, sistemas y software.

Al hacer clic en ‘Estoy De Acuerdo’ usted permitirá el uso de las cookies, identificadores de dispositivo, balizas web u otras tecnologías similares indicadas. Su configuración puede cambiarse desde el navegador de su dispositivo.

Para ciertos fines, los intereses legítimos pueden ser considerados por encima del consentimiento. Puede leer más sobre ello en nuestra Política de Privacidad y Cookies.